Location: Saint-Usage
(47.1052°N, 5.2587°E)
Time: 11:50:25
(UTC+02:00)

Nauka - Pass Details

Date: 27 September 2021
Orbit: 417 x 423 km, 51.6° (Epoch: 19 October)

Event Time Altitude Azimuth Distance (km) Brightness Sun altitude
Rises 20:08:56 0° 282° (WNW) 2,362 ? -8.1°
Reaches altitude 10° 20:11:08 10° 291° (WNW) 1,499 ? -8.4°
Maximum altitude 20:14:17 36° 0° (N) 686 ? -9.0°
Enters shadow 20:17:19 11° 68° (ENE) 1,458 ? -9.5°
